Location: Unspecified
(0.0000°N, 0.0000°E)
Time: 06:51:30
(UTC+00:00)

Courier 1B - Pass Details

Date: 02 October 2023
Orbit: 962 x 1208 km, 28.3° (Epoch: 06 December)

Event Time Altitude Azimuth Distance (km) Brightness Sun altitude
Rises 07:14:05 0° 243° (WSW) 3,671 10.0 21.1°
Reaches altitude 10° 07:16:42 10° 245° (WSW) 2,744 9.4 21.8°
Maximum altitude 07:23:21 75° 330° (NNW) 1,060 8.0 23.4°
Drops below altitude 10° 07:30:25 10° 55° (NE) 2,903 10.9 25.2°
Sets 07:33:15 0° 56° (ENE) 3,897 11.4 25.9°
